When you browse on this site, cookies collect data to enhance your experience and personalize the content and advertising you see.
Visit our Privacy Policy to learn more. By continuing to use the site, you agree to this use of cookies and data.
  • In Austria
  • List of Countries
  • For 7 days
  • Water Temperature
  • Weather Map
  • News
  • Weather Widgets
  • user-avatar
    Login

    Hourly Weather Nocaima

    Today, 23 February, Sunday

    Time Temperature Precipitation Wind Pressure Humidity
    00:00 +20°C° 0.2 mm 0 mps 671 mmHg 96%
    01:00 +20°C° 0.2 mm 0 mps 671 mmHg 96%
    02:00 +19°C° 0 mm 0 mps 671 mmHg 96%
    03:00 +19°C° 0 mm 0 mps 670 mmHg 95%
    04:00 +19°C° 0 mm 0 mps 670 mmHg 95%
    05:00 +20°C° 0 mm 0 mps 670 mmHg 94%
    06:00 +20°C° 0 mm 0 mps 671 mmHg 93%
    07:00 +20°C° 0 mm 0 mps 671 mmHg 93%
    08:00 +24°C° 0.2 mm 1 mps 672 mmHg 88%
    09:00 +25°C° 0.2 mm 1 mps 672 mmHg 83%
    10:00 +27°C° 0.2 mm 1 mps 673 mmHg 78%
    11:00 +27°C° 0.9 mm 1 mps 672 mmHg 80%
    12:00 +27°C° 0.9 mm 1 mps 671 mmHg 82%
    13:00 +27°C° 0.9 mm 1 mps 670 mmHg 84%
    14:00 +27°C° 1.1 mm 1 mps 670 mmHg 84%
    15:00 +27°C° 1.1 mm 1 mps 669 mmHg 85%
    16:00 +26°C° 1.1 mm 1 mps 668 mmHg 86%
    17:00 +25°C° 0.8 mm 1 mps 669 mmHg 89%
    18:00 +24°C° 0.8 mm 1 mps 669 mmHg 93%
    19:00 +21°C° 0.8 mm 0 mps 670 mmHg 97%
    20:00 +23°C° 0.5 mm 1 mps 670 mmHg 96%
    21:00 +22°C° 0.5 mm 1 mps 670 mmHg 96%
    22:00 +22°C° 0.5 mm 1 mps 671 mmHg 96%
    23:00 +22°C° 0.5 mm 1 mps 670 mmHg 95%

    Tomorrow, 24 February, Monday

    Time Temperature Precipitation Wind Pressure Humidity
    00:00 +22°C° 0.5 mm 1 mps 670 mmHg 95%
    01:00 +21°C° 0.5 mm 1 mps 670 mmHg 95%
    02:00 +21°C° 0.1 mm 1 mps 670 mmHg 95%
    03:00 +21°C° 0.1 mm 1 mps 669 mmHg 94%
    04:00 +21°C° 0.1 mm 1 mps 669 mmHg 94%
    05:00 +21°C° 0 mm 1 mps 670 mmHg 93%
    06:00 +22°C° 0 mm 1 mps 670 mmHg 93%
    07:00 +20°C° 0 mm 0 mps 671 mmHg 92%
    08:00 +24°C° 0.1 mm 1 mps 671 mmHg 86%
    09:00 +25°C° 0.1 mm 1 mps 672 mmHg 81%
    10:00 +27°C° 0.1 mm 1 mps 673 mmHg 75%
    11:00 +27°C° 1.1 mm 1 mps 672 mmHg 79%
    12:00 +27°C° 1.1 mm 1 mps 671 mmHg 82%
    13:00 +27°C° 1.1 mm 1 mps 670 mmHg 86%
    14:00 +27°C° 0.9 mm 1 mps 669 mmHg 86%
    15:00 +27°C° 0.9 mm 1 mps 669 mmHg 86%
    16:00 +27°C° 0.9 mm 1 mps 668 mmHg 86%
    17:00 +25°C° 0.6 mm 1 mps 668 mmHg 89%
    18:00 +24°C° 0.6 mm 1 mps 669 mmHg 92%
    19:00 +23°C° 0.6 mm 1 mps 669 mmHg 95%
    20:00 +23°C° 0.2 mm 1 mps 670 mmHg 94%
    21:00 +22°C° 0.2 mm 1 mps 670 mmHg 94%
    22:00 +22°C° 0.2 mm 1 mps 670 mmHg 93%
    23:00 +22°C° 0.1 mm 1 mps 670 mmHg 93%

    Day after tomorrow, 25 February, Tuesday

    Time Temperature Precipitation Wind Pressure Humidity
    00:00 +22°C° 0.1 mm 1 mps 670 mmHg 94%
    01:00 +21°C° 0.1 mm 1 mps 670 mmHg 94%
    02:00 +21°C° 0.1 mm 1 mps 670 mmHg 94%
    03:00 +21°C° 0.1 mm 1 mps 669 mmHg 94%
    04:00 +21°C° 0.1 mm 1 mps 669 mmHg 94%
    05:00 +21°C° 0.1 mm 1 mps 669 mmHg 93%
    06:00 +21°C° 0.1 mm 1 mps 670 mmHg 92%
    07:00 +22°C° 0.1 mm 1 mps 671 mmHg 91%
    08:00 +23°C° 0.2 mm 1 mps 671 mmHg 87%
    09:00 +25°C° 0.2 mm 1 mps 672 mmHg 83%
    10:00 +27°C° 0.2 mm 1 mps 672 mmHg 79%
    11:00 +27°C° 0.4 mm 1 mps 671 mmHg 77%
    12:00 +28°C° 0.4 mm 1 mps 671 mmHg 75%
    13:00 +29°C° 0.4 mm 1 mps 670 mmHg 73%
    14:00 +28°C° 0.4 mm 1 mps 670 mmHg 75%
    15:00 +28°C° 0.4 mm 1 mps 669 mmHg 77%
    16:00 +27°C° 0.4 mm 1 mps 669 mmHg 79%
    17:00 +26°C° 0.4 mm 1 mps 669 mmHg 85%
    18:00 +25°C° 0.4 mm 1 mps 669 mmHg 90%
    19:00 +21°C° 0.4 mm 0 mps 669 mmHg 96%
    20:00 +23°C° 0.1 mm 1 mps 670 mmHg 95%
    21:00 +22°C° 0.1 mm 1 mps 670 mmHg 95%
    22:00 +22°C° 0.1 mm 1 mps 670 mmHg 94%
    23:00 +22°C° 0 mm 1 mps 670 mmHg 94%

    26 February, Wednesday

    Time Temperature Precipitation Wind Pressure Humidity
    00:00 +22°C° 0 mm 1 mps 670 mmHg 94%
    01:00 +21°C° 0 mm 1 mps 670 mmHg 95%
    02:00 +21°C° 0 mm 1 mps 670 mmHg 94%
    03:00 +21°C° 0 mm 1 mps 669 mmHg 94%
    04:00 +21°C° 0 mm 1 mps 669 mmHg 94%
    05:00 +21°C° 0 mm 1 mps 670 mmHg 93%
    06:00 +21°C° 0 mm 1 mps 670 mmHg 92%
    07:00 +21°C° 0 mm 1 mps 671 mmHg 91%
    08:00 +23°C° 0.1 mm 1 mps 671 mmHg 83%
    09:00 +26°C° 0.1 mm 1 mps 672 mmHg 75%
    10:00 +28°C° 0.1 mm 1 mps 673 mmHg 67%
    11:00 +28°C° 0 mm 2 mps 672 mmHg 64%
    12:00 +29°C° 0 mm 2 mps 671 mmHg 61%
    13:00 +30°C° 0 mm 2 mps 671 mmHg 58%
    14:00 +29°C° 0.2 mm 2 mps 670 mmHg 64%
    15:00 +28°C° 0.2 mm 2 mps 669 mmHg 70%
    16:00 +27°C° 0.2 mm 1 mps 669 mmHg 77%
    17:00 +26°C° 0.5 mm 1 mps 669 mmHg 83%
    18:00 +24°C° 0.5 mm 1 mps 669 mmHg 89%
    19:00 +21°C° 0.5 mm 0 mps 669 mmHg 95%
    20:00 +23°C° 0.1 mm 1 mps 670 mmHg 95%
    21:00 +22°C° 0.1 mm 1 mps 670 mmHg 94%
    22:00 +22°C° 0.1 mm 1 mps 671 mmHg 94%
    23:00 +22°C° 0 mm 1 mps 671 mmHg 94%

    27 February, Thursday

    Time Temperature Precipitation Wind Pressure Humidity
    00:00 +21°C° 0 mm 1 mps 670 mmHg 94%
    01:00 +21°C° 0 mm 1 mps 670 mmHg 94%
    02:00 +21°C° 0 mm 1 mps 670 mmHg 94%
    03:00 +21°C° 0 mm 1 mps 670 mmHg 94%
    04:00 +21°C° 0 mm 1 mps 669 mmHg 93%
    05:00 +21°C° 0 mm 1 mps 670 mmHg 92%
    06:00 +20°C° 0 mm 0 mps 670 mmHg 92%
    07:00 +20°C° 0 mm 0 mps 671 mmHg 91%
    08:00 +24°C° 0.2 mm 1 mps 671 mmHg 85%
    09:00 +25°C° 0.2 mm 1 mps 672 mmHg 79%
    10:00 +27°C° 0.2 mm 1 mps 672 mmHg 73%
    11:00 +28°C° 0.3 mm 1 mps 672 mmHg 72%
    12:00 +28°C° 0.3 mm 2 mps 671 mmHg 70%
    13:00 +29°C° 0.3 mm 2 mps 670 mmHg 69%
    14:00 +28°C° 0.3 mm 1 mps 670 mmHg 71%
    15:00 +28°C° 0.3 mm 1 mps 669 mmHg 74%
    16:00 +28°C° 0.3 mm 1 mps 669 mmHg 76%
    17:00 +26°C° 1 mm 1 mps 669 mmHg 82%
    18:00 +25°C° 1 mm 1 mps 669 mmHg 89%
    19:00 +21°C° 1 mm 0 mps 669 mmHg 95%
    20:00 +23°C° 0.5 mm 1 mps 670 mmHg 95%
    21:00 +22°C° 0.5 mm 1 mps 670 mmHg 94%
    22:00 +22°C° 0.5 mm 1 mps 670 mmHg 94%
    23:00 +22°C° 0.1 mm 1 mps 670 mmHg 94%

    28 February, Friday

    Time Temperature Precipitation Wind Pressure Humidity
    00:00 +22°C° 0.1 mm 1 mps 670 mmHg 93%
    01:00 +21°C° 0.1 mm 1 mps 670 mmHg 93%
    02:00 +21°C° 0.1 mm 1 mps 670 mmHg 93%
    03:00 +21°C° 0.1 mm 1 mps 669 mmHg 93%
    04:00 +21°C° 0.1 mm 1 mps 669 mmHg 93%
    05:00 +20°C° 0.1 mm 0 mps 670 mmHg 93%
    06:00 +20°C° 0.1 mm 0 mps 670 mmHg 92%
    07:00 +20°C° 0.1 mm 0 mps 671 mmHg 91%
    08:00 +23°C° 0.4 mm 1 mps 671 mmHg 88%
    09:00 +25°C° 0.4 mm 1 mps 672 mmHg 84%
    10:00 +26°C° 0.4 mm 1 mps 672 mmHg 80%
    11:00 +27°C° 0.9 mm 1 mps 672 mmHg 79%
    12:00 +27°C° 0.9 mm 1 mps 671 mmHg 78%
    13:00 +28°C° 0.9 mm 1 mps 670 mmHg 77%
    14:00 +27°C° 0.7 mm 1 mps 670 mmHg 79%
    15:00 +27°C° 0.7 mm 1 mps 669 mmHg 81%
    16:00 +27°C° 0.7 mm 1 mps 669 mmHg 82%
    17:00 +25°C° 0.7 mm 1 mps 669 mmHg 87%
    18:00 +24°C° 0.7 mm 1 mps 669 mmHg 91%
    19:00 +21°C° 0.7 mm 0 mps 669 mmHg 95%
    20:00 +20°C° 0.2 mm 0 mps 670 mmHg 95%
    21:00 +22°C° 0.2 mm 1 mps 670 mmHg 95%
    22:00 +22°C° 0.2 mm 1 mps 671 mmHg 94%
    23:00 +22°C° 0.1 mm 1 mps 671 mmHg 94%
    Show more